Location: Unspecified
(0.0000°N, 0.0000°E)
Time: 08:03:07
(UTC+00:00)

AO-109 - Visible Passes

Search period start: 04 March 2024 00:00
Search period end: 14 March 2024 00:00
Orbit: 333 x 368 km, 60.7° (Epoch: 04 March)

Date Brightness Start Highest point End Pass type
(mag) Time Alt. Az. Time Alt. Az. Time Alt. Az.
08 Mar ? 19:08:42 10° S 19:11:27 44° ESE 19:11:46 42° E visible
09 Mar ? 19:32:20 10° WSW 19:34:34 21° WNW 19:36:00 15° NNW visible
11 Mar ? 05:46:31 10° NE 05:47:11 11° ENE 05:47:51 10° ENE visible
11 Mar ? 18:42:40 10° SW 18:45:14 31° WNW 18:47:46 10° N visible
